Weather History for Lamar, CO

Change the Weather History Date:

Sunday, May 13, 2012

  Actual Average Record
Temperature  
Mean Temperature 55 °F 61 °F  
Max Temperature 68 °F 78 °F 96 °F (1941)
Min Temperature 42 °F 45 °F 20 °F (1920)
Degree Days  
Heating Degree Days 10 5  
Month to date heating degree days 67 86  
Since 1 July heating degree days 4935 5486  
Cooling Degree Days 0 1  
Month to date cooling degree days 6 11  
Year to date cooling degree days 24 16  
Growing Degree Days 4 (Base 50)    
Moisture  
Dew Point 47 °F    
Average Humidity 71    
Maximum Humidity 93    
Minimum Humidity 48    
Precipitation  
Precipitation 0.01 in 0.05 in 1.88 in (1985)
Month to date precipitation 0.14 0.60  
Year to date precipitation 2.06 3.43  
Snow  
Snow 0.00 in - - ()
Month to date snowfall 0.0  
Snow Depth 0.00 in    
Sea Level Pressure  
Sea Level Pressure 30.25 in    
Wind  
Wind Speed 7 mph (East)    
Max Wind Speed 18 mph    
Max Gust Speed 24 mph    
Visibility 9 miles    
Events Rain    
T = Trace of Precipitation, MM = Missing Value Source: NWS Daily Summary

Daily Weather History Graph

Daily Weather History Graph

Search for Another Location

Airport:

Trip Planner

Search our weather history database for the weather conditions in past years. The results will help you decide how hot, cold, wet, or windy it might be!

Date:

Astronomy

May. 13, 2012 Rise Set
Actual Time 5:41 AM MDT 7:53 PM MDT
Civil Twilight 5:12 AM MDT 8:22 PM MDT
Nautical Twilight 4:36 AM MDT 8:58 PM MDT
Astronomical Twilight 3:56 AM MDT 9:38 PM MDT
Moon 1:41 AM MDT (5/13) 1:22 PM MDT (5/13)
Length of Visible Light 15h 10m
Length of Day
14h 11m
Last Quarter, 41% of the Moon is Illuminated
May 13
Last Quarter
May 20
New
May 28
First Quarter
Jun 4
Full
Jun 11
Last Quarter

Hourly Weather History & Observations

Time (MDT) Temp. Windchill Dew Point Humidity Pressure Visibility Wind Dir Wind Speed Gust Speed Precip Events Conditions
12:53 AM 48.9 °F - 46.0 °F 90% 30.32 in 9.0 mi ENE 3.5 mph - N/A   Overcast
1:16 AM 48.2 °F - 46.4 °F 93% 30.34 in 9.0 mi ENE 4.6 mph - N/A   Overcast
1:53 AM 48.9 °F - 46.0 °F 90% 30.30 in 10.0 mi ESE 5.8 mph - N/A   Overcast
2:07 AM 48.2 °F - 46.4 °F 93% 30.33 in 10.0 mi ESE 5.8 mph - N/A   Overcast
2:49 AM 48.2 °F - 46.4 °F 93% 30.32 in 9.0 mi NE 3.5 mph - N/A   Overcast
2:53 AM 48.0 °F - 46.0 °F 93% 30.29 in 9.0 mi East 4.6 mph - N/A   Overcast
3:18 AM 48.2 °F - 46.4 °F 93% 30.31 in 10.0 mi East 5.8 mph - N/A   Mostly Cloudy
3:53 AM 48.0 °F - 45.0 °F 89% 30.27 in 10.0 mi ESE 5.8 mph - N/A   Scattered Clouds
4:53 AM 44.1 °F 42.5 °F 43.0 °F 96% 30.27 in 8.0 mi South 3.5 mph - N/A   Clear
5:14 AM 42.8 °F 41.1 °F 42.8 °F 100% 30.31 in 7.0 mi North 3.5 mph - N/A   Mostly Cloudy
5:51 AM 46.4 °F 44.3 °F 44.6 °F 93% 30.31 in 7.0 mi North 4.6 mph - N/A   Overcast
5:53 AM 46.9 °F - 45.0 °F 93% 30.29 in 7.0 mi NNE 4.6 mph - N/A   Overcast
6:11 AM 46.4 °F 44.3 °F 44.6 °F 93% 30.32 in 5.0 mi NE 4.6 mph - N/A   Overcast
6:21 AM 46.4 °F 44.3 °F 46.4 °F 100% 30.32 in 5.0 mi NE 4.6 mph - N/A   Overcast
6:53 AM 48.0 °F - 46.0 °F 93% 30.30 in 6.0 mi ENE 5.8 mph - N/A   Overcast
7:53 AM 48.9 °F - 46.0 °F 90% 30.29 in 8.0 mi East 9.2 mph - N/A   Overcast
8:06 AM 48.2 °F - 46.4 °F 93% 30.32 in 8.0 mi ESE 8.1 mph - N/A   Overcast
9:42 AM 55.4 °F - 46.4 °F 72% 30.30 in 10.0 mi ESE 8.1 mph - N/A   Mostly Cloudy
9:53 AM 57.0 °F - 46.9 °F 69% 30.25 in 10.0 mi ESE 6.9 mph - N/A   Partly Cloudy
10:14 AM 57.2 °F - 46.4 °F 67% 30.30 in 10.0 mi Variable 3.5 mph - N/A   Mostly Cloudy
10:53 AM 59.0 °F - 46.0 °F 62% 30.24 in 10.0 mi Variable 3.5 mph - N/A   Overcast
11:18 AM 60.8 °F - 46.4 °F 59% 30.29 in 10.0 mi East 5.8 mph - N/A   Overcast
11:53 AM 62.1 °F - 46.9 °F 58% 30.22 in 10.0 mi Variable 5.8 mph - N/A   Overcast
12:53 PM 64.0 °F - 46.9 °F 54% 30.19 in 10.0 mi Variable 4.6 mph - N/A   Overcast
1:53 PM 66.0 °F - 48.0 °F 52% 30.16 in 10.0 mi Variable 4.6 mph - N/A   Mostly Cloudy
2:53 PM 66.0 °F - 46.9 °F 50% 30.14 in 10.0 mi East 5.8 mph - N/A   Overcast
3:53 PM 66.9 °F - 46.9 °F 49% 30.12 in 10.0 mi SE 4.6 mph - N/A   Overcast
4:53 PM 66.9 °F - 46.9 °F 49% 30.12 in 10.0 mi ENE 8.1 mph - N/A   Overcast
5:53 PM 66.9 °F - 46.0 °F 47% 30.12 in 10.0 mi East 6.9 mph - N/A   Mostly Cloudy
6:53 PM 64.9 °F - 48.0 °F 54% 30.12 in 10.0 mi NE 4.6 mph - N/A   Overcast
7:53 PM 60.1 °F - 48.0 °F 64% 30.15 in 10.0 mi SE 13.8 mph - N/A   Overcast
8:53 PM 59.0 °F - 50.0 °F 72% 30.16 in 10.0 mi SSE 8.1 mph - 0.01 in   Overcast
9:53 PM 55.9 °F - 52.0 °F 87% 30.17 in 10.0 mi WSW 10.4 mph - N/A   Clear
10:53 PM 54.0 °F - 48.0 °F 80% 30.18 in 10.0 mi West 15.0 mph - 0.00 in Rain Light Rain
11:53 PM 53.1 °F - 48.0 °F 83% 30.19 in 10.0 mi SSW 8.1 mph - 0.00 in   Overcast